FW3198 Weather Reports


time (UTC)temp
F
wind
direction
speed
knots
gust
knots
rain 1hr
in
rain 24hr
in
rain mn
in
humidity
%
barometer
mb
20260504234549 71 0 0.0 0.0 0.00 0.00 0.00 49 1014.5
20260504233054 71 0 0.0 0.0 0.00 0.00 0.00 48 1014.5
20260504231552 73 0 0.0 0.0 0.00 0.00 0.00 48 1014.5
20260504230104 73 0 0.0 0.0 0.00 0.00 0.00 45 1014.6
20260504224600 74 0 0.0 0.9 0.00 0.00 0.00 42 1014.6
20260504223050 76 118 0.0 3.5 0.00 0.00 0.00 39 1014.6
20260504221557 77 0 0.0 1.7 0.00 0.00 0.00 39 1014.5
20260504220053 79 147 0.0 3.5 0.00 0.00 0.00 38 1014.4
20260504214547 81 0 0.0 2.6 0.00 0.00 0.00 37 1014.5
20260504213050 82 241 0.0 0.9 0.00 0.00 0.00 34 1014.5
20260504211554 80 0 0.0 0.9 0.00 0.00 0.00 37 1014.4
20260504204555 80 0 0.0 0.9 0.00 0.00 0.00 38 1014.8
20260504203050 79 302 0.0 1.7 0.00 0.00 0.00 40 1014.9
20260504201549 79 209 0.0 2.6 0.00 0.00 0.00 40 1015.1
20260504194548 81 0 0.9 4.3 0.00 0.00 0.00 34 1015.2
20260504193055 81 278 0.0 3.5 0.00 0.00 0.00 35 1015.6
20260504191605 81 352 0.9 2.6 0.00 0.00 0.00 35 1015.8
20260504190047 81 128 0.0 2.6 0.00 0.00 0.00 37 1016.1
20260504184543 80 0 0.0 1.7 0.00 0.00 0.00 35 1016.3
20260504183054 80 175 0.0 1.7 0.00 0.00 0.00 36 1016.5
20260504181546 79 90 0.9 2.6 0.00 0.00 0.00 35 1016.6
20260504180047 77 96 0.9 2.6 0.00 0.00 0.00 38 1016.7
20260504174551 77 48 1.7 3.5 0.00 0.00 0.00 37 1016.8
20260504173046 78 112 0.0 1.7 0.00 0.00 0.00 44 1016.8
20260504171549 76 265 0.9 2.6 0.00 0.00 0.00 39 1017.1
20260504120109 44 0 0.0 0.0 0.00 0.00 0.00 95 1018.3
20260504081552 45 0 0.0 0.0 0.00 0.00 0.00 93 1017.8
20260504044552 49 0 0.0 0.0 0.00 0.00 0.00 86 1018.7
20260504043110 49 0 0.0 0.0 0.00 0.00 0.00 85 1018.7
20260504041549 49 0 0.0 0.0 0.00 0.00 0.00 86 1018.8
20260504040049 50 0 0.0 0.0 0.00 0.00 0.00 86 1018.8
20260504034552 50 0 0.0 0.0 0.00 0.00 0.00 85 1018.9
20260504033059 51 0 0.0 0.0 0.00 0.00 0.00 82 1018.9
20260504031552 51 0 0.0 0.0 0.00 0.00 0.00 82 1018.7
20260504024547 52 0 0.0 0.0 0.00 0.00 0.00 78 1018.6
20260504023048 53 0 0.0 0.0 0.00 0.00 0.00 77 1018.5
20260504021549 53 0 0.0 0.0 0.00 0.00 0.00 74 1018.4
20260504020050 54 278 0.0 0.0 0.00 0.00 0.00 71 1018.1
20260504014549 55 0 0.0 0.0 0.00 0.00 0.00 69 1017.7
20260504013053 56 0 0.0 0.0 0.00 0.00 0.00 66 1017.6
20260504011552 57 0 0.0 0.0 0.00 0.00 0.00 65 1017.4
20260504010056 58 0 0.0 0.0 0.00 0.00 0.00 63 1017.4
20260504004549 59 0 0.0 0.0 0.00 0.00 0.00 61 1017.2
20260504003049 60 0 0.0 0.0 0.00 0.00 0.00 58 1017.1
20260504001543 62 0 0.0 0.0 0.00 0.00 0.00 56 1017.1
20260504000059 63 0 0.0 0.0 0.00 0.00 0.00 54 1017.0